sat.trackr.live / text

‹ back to catalog

STARLINK-31027

NORAD 58720 · 2024-002R

PAYLOAD ACTIVE UNKNOWN

§ Identity

Operator
Country
US
Launch date
2024-01-03
Launch site
AFWTR
Launch vehicle
Mass (kg)
RCS (m²)

Purposes: comms

External: N2YO · Heavens-Above · Gunter

§ Orbital elements

Epoch: 2026-05-25T05:09:10.122336Z

Period
91.88 min
Inclination
53.1420°
Eccentricity
0.0007251
Mean motion
15.67308684 rev/d
Perigee alt
361.7 km
Apogee alt
371.5 km
Semi-major
6,744.7 km
B*
6.7771e-4
RAAN
214.9112°
Arg perigee
273.6177°
Mean anomaly
86.4011°
Rev number
13,400

§ Raw data

STARLINK-310271 58720U 24002R   26145.21470049  .00074591  00000+0  67771-3 0  99912 58720  53.1420 214.9112 0007251 273.6177  86.4011 15.67308684134003

JSON: /api/v1/satellites/58720 · /tle

For live sub-satellite position, see the globe view (requires WebGL).

§ Visibility from observer

Set your observer location to see the next 7 days of passes ≥ 10°. The values pass through the URL so the page stays shareable.

No JS? Fill the form by hand. The geolocation button needs JavaScript.